Voltar ao catálogo

FENGYUN 1C DEB

AtivoSSO
NORAD 29858·DEBRIS·🇨🇳 China

Lançado May 10, 1999 de Taiyuan Satellite Launch Center

Loading…

Próximas Passagens (próximas 24 horas)

TLE

AtualizadoSource: Space-Track

Época: Sep 14, 2026, 06:05 UTC

1 29858U 99025FC  26257.25416571  .00000548  00000-0  50505-3 0  9995
2 29858  99.2162 356.0033 0195784  55.0448 332.8065 13.78493493983494

Acompanhe FENGYUN 1C DEB em tempo real com AllMySat

Download on the App Store